Regional Weather Roundup
Issued by NWS Sterling, VA

Home | Current Version | Previous Version | Graphics & Text | Print | Product List | Glossary On
Versions: 1 2 3 4 5 6 7 8 9 10 11 12 13 14 15 16 17 18 19 20 21 22 23 24 25 26 27 28 29 30 31 32 33 34 35 36 37 38 39 40 41 42 43 44 45 46 47 48
000
ASUS41 KLWX 211710
RWRLWX

REGIONAL WEATHER ROUNDUP
NATIONAL WEATHER SERVICE BALTIMORE MD/WASHINGTON DC
100 PM EDT TUE OCT 21 2014

Note: "FAIR" indicates few or no clouds below 12,000 feet
with no significant weather and/or obstructions to visibility.
 TC=TEMPERATURE CELSIUS

 * =Non NWS site. Station does not report precipitation (e.g. rain,
    snow, etc.), thunder, or fog.

DCZ001-MDZ009-015-VAZ040>042-051-053>054-211800-
WASHINGTON METRO

CITY           SKY/WX    TMP DP  RH WIND       PRES   REMARKS
WASHINGTON NAT MOSUNNY   70  48  45 E5        29.84
DULLES         MOSUNNY   66  47  50 VRB5      29.84F
ANDREWS AFB    MOSUNNY   68  47  46 NW2       29.84F
FT BELVOIR     SUNNY     65  51  60 CALM      29.87S
QUANTICO       MOSUNNY   65  53  65 SE3       29.85F
COLLEGE PARK*  SUNNY     68  46  45 W5        29.84F
LEESBURG*      PTSUNNY   68  50  52 NW9       29.85F
MANASSAS*      MOSUNNY   66  50  55 CALM      29.84
GAITHERSBURG*  MOSUNNY   64  46  52 W12       29.88F

$$

MDZ006>007-011-014-211800-
BALTIMORE METRO

CITY           SKY/WX    TMP DP  RH WIND       PRES   REMARKS
BWI AIRPORT    MOSUNNY   66  48  52 W9        29.83F
MD SCIENCE CTR   N/A     67  47  48 MISG      29.84F
MARTIN STATE   MOSUNNY   64  55  72 E7        29.86F
ANNAPOLIS      MOSUNNY   63  53  70 SE8       29.84F
FORT MEADE*    MOSUNNY   68  48  49 W5        29.87F

$$

MDZ012-015-019>023-211800-
MARYLAND EASTERN SHORE

CITY           SKY/WX    TMP DP  RH WIND       PRES   REMARKS
OCEAN CITY     PTSUNNY   70  55  59 W8        29.83F
SALISBURY      FAIR      73  52  47 N6        29.84F
BAY BRIDGE AP*   N/A     64  46  52 CALM      29.85F
CAMBRIDGE*     SUNNY     70  50  49 NW6       29.84F
EASTON*        MOSUNNY   68  50  52 NE5       29.88F

$$

MDZ017>025-211800-
SOUTHERN MARYLAND

CITY           SKY/WX    TMP DP  RH WIND       PRES   REMARKS
PATUXENT RIVER MOSUNNY   68  48  48 NE8       29.85F
ST INIGOES     SUNNY     70  49  47 W5        29.84F
LEONARDTOWN*   SUNNY     68  46  45 NE3       29.86F

$$

MDZ003>005-211800-
NORTH CENTRAL MARYLAND

CITY           SKY/WX    TMP DP  RH WIND       PRES   REMARKS
FREDERICK*     MOSUNNY   70  48  46 NW7       29.87F
HAGERSTOWN APT MOSUNNY   62  47  57 W6        29.85F
WESTMINSTER*   MOSUNNY   63  50  63 NW8       29.85F

$$

MDZ501>502-211800-
WESTERN MARYLAND

CITY           SKY/WX    TMP DP  RH WIND       PRES   REMARKS
OAKLAND*       CLOUDY    45 N/A N/A CALM      29.88S FOG
CUMBERLAND*    PTSUNNY   61  46  59 N5        29.89S

$$

VAZ025>031-211800-
SHENANDOAH VALLEY

CITY           SKY/WX    TMP DP  RH WIND       PRES   REMARKS
WINCHESTER*    CLOUDY    63  43  48 NW3       29.85F
FRONT ROYAL*   CLOUDY    63  46  55 CALM      29.84F
LURAY*         CLOUDY    68  48  49 SW9       29.84F
NEW MARKET*    CLOUDY    63  46  52 W7        29.85F
STAUNTON*      CLOUDY    64  44  47 SW5       29.87F
WAYNESBORO*    FAIR      64  44  49 SW9G16    29.86F

$$

WVZ021-048>050-054>055-211800-
EASTERN WEST VIRGINIA PANHANDLE

CITY           SKY/WX    TMP DP  RH WIND       PRES   REMARKS
MARTINSBURG    MOSUNNY   65  45  48 VRB3      29.86F
PETERSBURG*    LGT RAIN N/A N/A N/A CALM      29.88F

$$

VAZ036>039-050-211800-
CENTRAL FOOTHILLS

CITY           SKY/WX    TMP DP  RH WIND       PRES   REMARKS
CHARLOTTESVILL MOSUNNY   68  47  46 VRB5      29.84F
CULPEPER*      MOSUNNY   70  46  43 N5        29.85F
ORANGE*        SUNNY     70  46  43 S3        29.86F
GORDONSVILLE*  FAIR      68  46  45 S5        29.84F
WARRENTON*     FAIR      72  53  51 NW3       29.83F

$$

VAZ055>057-211800-
NORTH AND CENTRAL PIEDMONT

CITY           SKY/WX    TMP DP  RH WIND       PRES   REMARKS
FREDERICKSBRG* MOSUNNY   71  46  41 NW6       29.84F
STAFFORD*      SUNNY     69  45  42 CALM      29.88F

$$

NCZ024-NYZ072-PAZ021-071-VAZ022-071-211800-
OTHER REGIONAL OBSERVATIONS

CITY           SKY/WX    TMP DP  RH WIND       PRES   REMARKS
NEW YORK CITY  PTSUNNY   64  49  57 CALM      29.88F
PHILADELPHIA   MOSUNNY   67  49  52 CALM      29.84F
PITTSBURGH     DRIZZLE   52  45  77 N12       29.89S
ROANOKE        CLOUDY    62  45  53 SW7       29.91F
RICHMOND       MOSUNNY   72  48  42 CALM      29.85F
RALEIGH        MOSUNNY   71  48  43 SW9       29.90F

$$

ANZ530>537-211800-
MARINE OBSERVATIONS

STATION/POSITION TIME  TEMP    WIND        PRES
                       AIR SEA DIR/SP/G
                 (UTC) (F)     (DEG/KT/KT) (MB)
THOMAS PT LIGHT  1700   61 64  130/  4/  4 1011.5F
BALT KEY BRIDGE  1700   62     110/  4/  5 1010.5F
COVE POINT       1700   62      10/  4/  5 1010.8F
LEWISETTA        1700   63 63   50/  4/  6 1010.4F
SOLOMONS ISLAND  1700      66                N/A
PINEY POINT      1700          300/  4/  5   N/A

$$




USA.gov is the U.S. government's official web portal to all federal, state and local government web resources and services.